Weather History for Seward, AK

Change the Weather History Date:

Saturday, April 19, 2014

  Actual Average Record
Temperature  
Mean Temperature 42 °F -  
Max Temperature 55 °F 45 °F 61 °F (1965)
Min Temperature 30 °F 32 °F 17 °F (1972)
Degree Days  
Heating Degree Days 22    
Moisture  
Dew Point 25 °F    
Average Humidity 54    
Maximum Humidity 92    
Minimum Humidity 18    
Precipitation  
Precipitation 0.00 in - - ()
Sea Level Pressure  
Sea Level Pressure 29.49 in    
Wind  
Wind Speed 5 mph (North)    
Max Wind Speed 12 mph    
Max Gust Speed 18 mph    
Visibility 10 miles    
Events      
Averages and records for this station are not official NWS values.
T = Trace of Precipitation, MM = Missing Value Source: NWS Daily Summary

Daily Weather History Graph

Daily Weather History Graph

Search for Another Location

Airport:

Trip Planner

Search our weather history database for the weather conditions in past years. The results will help you decide how hot, cold, wet, or windy it might be!

Date:

Astronomy

Apr. 19, 2014 Rise Set
Actual Time 6:28 AM AKDT 9:26 PM AKDT
Civil Twilight 5:40 AM AKDT 10:15 PM AKDT
Nautical Twilight 4:34 AM AKDT 11:22 PM AKDT
Astronomical Twilight 2:44 AM AKDT 1:22 AM AKDT
Moon 1:57 AM AKDT (4/19) 9:18 AM AKDT (4/19)
Length of Visible Light 16h 34m
Length of Day
14h 58m
Waning Gibbous, 77% of the Moon is Illuminated
Apr 19
Waning Gibbous
Apr 21
Last Quarter
Apr 28
New
May 6
First Quarter
May 14
Full

Hourly Weather History & Observations

Time (AKDT) Temp. Windchill Dew Point Humidity Pressure Visibility Wind Dir Wind Speed Gust Speed Precip Events Conditions
1:53 AM 33.1 °F 30.0 °F 30.0 °F 89% 29.62 in 10.0 mi North 3.5 mph - N/A   Overcast
2:53 AM 32.0 °F 28.7 °F 30.0 °F 92% 29.62 in 10.0 mi North 3.5 mph - N/A   Mostly Cloudy
4:53 AM 30.9 °F 26.2 °F 28.9 °F 92% 29.58 in 10.0 mi NNE 4.6 mph - N/A   Clear
5:53 AM 30.9 °F - 28.0 °F 89% 29.56 in 10.0 mi Calm Calm - N/A   Clear
6:53 AM 32.0 °F - 28.9 °F 88% 29.55 in 10.0 mi Calm Calm - N/A   Mostly Cloudy
7:53 AM 33.1 °F - 30.0 °F 89% 29.54 in 10.0 mi Calm Calm - N/A   Clear
8:53 AM 37.9 °F - 34.0 °F 86% 29.53 in 10.0 mi Calm Calm - N/A   Clear
9:53 AM 45.0 °F 41.8 °F 27.0 °F 49% 29.50 in 10.0 mi NNE 5.8 mph - N/A   Clear
10:53 AM 46.9 °F - 23.0 °F 39% 29.49 in 10.0 mi NNW 6.9 mph 17.3 mph N/A   Clear
11:53 AM 50.0 °F - 21.9 °F 33% 29.47 in 10.0 mi North 9.2 mph 17.3 mph N/A   Clear
12:53 PM 51.1 °F - 21.0 °F 31% 29.47 in 10.0 mi NNW 9.2 mph - N/A   Clear
1:53 PM 53.1 °F - 19.9 °F 27% 29.46 in 10.0 mi North 10.4 mph - N/A   Clear
2:53 PM 54.0 °F - 12.0 °F 19% 29.44 in 10.0 mi North 9.2 mph 18.4 mph N/A   Clear
3:53 PM 55.0 °F - 12.0 °F 18% 29.43 in 10.0 mi North 11.5 mph - N/A   Clear
4:53 PM 53.1 °F - 12.9 °F 20% 29.42 in 10.0 mi Variable 5.8 mph - N/A   Clear
5:53 PM 51.1 °F - 27.0 °F 39% 29.42 in 10.0 mi Variable 3.5 mph - N/A   Clear
6:53 PM 46.9 °F - 34.0 °F 61% 29.42 in 10.0 mi South 4.6 mph - N/A   Clear
7:53 PM 46.0 °F 43.9 °F 34.0 °F 63% 29.42 in 10.0 mi SE 4.6 mph - N/A   Clear
8:53 PM 44.1 °F - 32.0 °F 63% 29.42 in 10.0 mi Calm Calm - N/A   Clear
9:53 PM 45.0 °F 40.6 °F 18.0 °F 34% 29.43 in 10.0 mi North 8.1 mph - N/A   Clear
10:53 PM 43.0 °F 37.7 °F 18.0 °F 37% 29.44 in 10.0 mi North 9.2 mph - N/A   Clear
11:53 PM 42.1 °F 36.6 °F 19.0 °F 40% 29.44 in 10.0 mi NNE 9.2 mph - N/A   Clear